Search for airport 
image banner adimage banner adimage banner ad
image banner ad

NV83 - Hadley

Located in Round Mountain, United States

ICAO - NV83, IATA -

Data provided by Airmate  

General information

Coordinates: N38°41'39" W117°8'48"
Elevation is 5744 feet MSL.
Magnetic variation is 15° East
View others Airports in Nevada

Operational data

Special qualification required
Current time UTC:
Current local time:
Weather at : KTPH - Tonopah ( 71 km )
METAR: KTPH 130156Z AUTO 18015KT 10SM CLR 31/M11 A3000 RMK AO2 SLP079 T03111106
TAF: KTPH 122320Z 1300/1324 17011KT P6SM SKC FM130800 02007KT P6SM SKC FM131700 19015G25KT P6SM SKC
View NOTAMs / SUP AIP / TFR affecting this airport [VIEW]
Communications frequencies: [VIEW]

Runways:

RWY identifierQFULength (ft)Width (ft)SurfaceLDA (ft)
17677660ASPH
35677660ASPH

Airport contact information

Address: Round Mountain United States

Satellite view of NV83